Location: Battery Park City
(40.7115°N, 74.0163°W)
Time: 11:23:51
(UTC+00:00)

Cosmos 1666 - Pass Details

Date: 08 December 2019
Orbit: 498 x 521 km, 82.5° (Epoch: 23 January)

Event Time Altitude Azimuth Distance (km) Brightness Sun altitude
Rises 22:16:15 0° 6° (N) 2,605 6.0 -9.0°
Reaches altitude 10° 22:18:45 10° 22° (NNE) 1,713 4.9 -9.4°
Maximum altitude 22:21:43 22° 75° (ENE) 1,136 3.8 -9.9°
Drops below altitude 10° 22:24:39 10° 127° (SE) 1,697 5.0 -10.4°
Sets 22:27:06 0° 143° (SE) 2,574 6.1 -10.9°
